Regional Weather Roundup
Issued by NWS Albany, NY

Home | Current Version | Previous Version | Text Only | Print | Product List | Glossary On
Versions: 1 2 3 4 5 6 7 8 9 10 11 12 13 14 15 16 17 18 19 20 21 22 23 24 25 26 27 28 29 30 31 32 33 34 35 36 37 38 39 40 41 42 43 44 45 46 47 48 49 50
000
ASUS41 KALY 200010
RWRALY

NEW YORK STATE HOURLY WEATHER ROUNDUP
NATIONAL WEATHER SERVICE ALBANY NY
800 PM EDT THU OCT 19 2017

NOTE: "FAIR" INDICATES FEW OR NO CLOUDS BELOW 12,000 FEET WITH NO
SIGNIFICANT WEATHER AND/OR NO OBSTRUCTIONS TO VISIBILITY.

NYZ032-033-038>043-046>054-057>066-NYZ062>081-082-084-200100-
EAST


CITY           SKY/WX    TMP DP  RH WIND       PRES   REMARKS
ALBANY         PTCLDY    63  45  51 S7        29.99R
GLENS FALLS    MOCLDY    63  46  54 S9        29.96R
POUGHKEEPSIE   CLEAR     54  44  69 CALM      30.04S
NEWBURGH       CLEAR     63  46  55 CALM      30.07R
MONTGOMERY     CLEAR     57  45  64 S8        30.05S
WHITE PLAINS   CLEAR     62  42  47 CALM      30.07S
ISLIP          PTCLDY    62  56  80 SW12      30.08F
NEW YORK CITY  PTCLDY    68  44  42 SW13      30.08S
CENTRAL PARK   CLEAR     66  43  43 VRB5      30.11S
$$

NYZ005>009-017-018-044>046-055-056-200100-
CENTRAL


CITY           SKY/WX    TMP DP  RH WIND       PRES   REMARKS
FULTON         CLOUDY    64  50  60 W13       30.03R
SYRACUSE       MOCLDY    65  49  56 W12G22    30.01R
ROME           CLOUDY    62  49  62 NW9       30.02R
ELMIRA         CLEAR     57  46  66 W5        30.05R
BINGHAMTON     CLEAR     60  42  51 SW9       30.06R
MONTICELLO     CLEAR     60  40  47 SW7       30.09S
$$

NYZ026>034-041>043-087-200100-
NORTH


CITY           SKY/WX    TMP DP  RH WIND       PRES   REMARKS
WATERTOWN      CLOUDY    62  56  80 SW15G33   29.98R
FORT DRUM      NOT AVBL
OGDENSBURG     FAIR      61  54  77 SW8G16    29.93R
MASSENA        CLEAR     62  54  74 SW16G22   29.91R
SARANAC LAKE   MOCLDY    59  48  67 W21G35    29.95R
PLATTSBURGH    CLOUDY    68  44  42 VRB7G18   29.91R
$$

NYZ001>004-010>016-019>021-085-200100-
WEST


CITY           SKY/WX    TMP DP  RH WIND       PRES   REMARKS
NIAGARA FALLS  PTCLDY    59  51  75 W8        30.08R
BUFFALO        PTCLDY    60  54  80 W12G20    30.08R
DUNKIRK        CLEAR     59  56  89 SW9       30.11R
JAMESTOWN      CLEAR     57  52  83 W10       30.14R
WELLSVILLE     MOCLDY    63  45  51 W8        30.12R
ROCHESTER      CLOUDY    62  52  69 W10       30.06R
PENN YAN       PTCLDY    64  45  49 W7G17     30.05R
$$

             KEY
       WCI = WIND CHILL INDEX
       VSB = VISIBILITY
       HX  = HEAT INDEX
$$



USA.gov is the U.S. government's official web portal to all federal, state and local government web resources and services.